Regional Weather Roundup
Issued by NWS Jackson, KY

Home | Current Version | Previous Version | Text Only | Print | Product List | Glossary Off
Versions: 1 2 3 4 5 6 7 8 9 10 11 12 13 14 15 16 17 18 19 20 21 22 23 24 25 26 27 28 29 30 31 32 33 34 35 36 37 38 39 40 41 42 43 44 45 46 47 48 49 50

000
ASUS43 KJKL 300810
RWRJKL

EAST KENTUCKY HOURLY WEATHER ROUNDUP
NATIONAL WEATHER SERVICE JACKSON KY
400 AM EDT SAT JUL 30 2016

NOTE: "FAIR" INDICATES FEW OR NO CLOUDS BELOW 12,000 FEET WITH
NO SIGNIFICANT WEATHER AND/OR OBSTRUCTIONS TO VISIBILITY.

* THESE REPORTS ARE NOT UNDER NWS QUALITY CONTROL AND MAY NOT
  REPORT WEATHER SUCH AS PRECIPITATION AND FOG.

KYZ079-080-083-085-087-088-110-112-115-119-120-300900
...EASTERN KENTUCKY...

CITY           SKY/WX    TMP DP  RH WIND       PRES   REMARKS
JACKSON        CLEAR     69  67  93 CALM      29.96F
LONDON         MOCLDY    70  67  90 CALM      29.97R
SOMERSET*      CLOUDY    70  70 100 CALM      29.96S
MONTICELLO*    CLOUDY   N/A N/A N/A CALM      29.97S
WILLIAMSBURG*  MOSUNNY   68  68 100 CALM      29.97S
MIDDLESBORO*   CLOUDY    69  69  99 CALM      29.99R
HARLAN APT*      N/A     68  66  94 CALM      30.00S
PIKE CO APT*   FOG       67  67 100 CALM      29.98R VSB 1/2
MOREHEAD APT*  CLOUDY    72  70  94 VRB3      29.95F
ASHLAND*       CLOUDY    73  72  94 CALM      29.89F
$$

KYZ035-036-041-042-044-050-067-078-099-300900
...CENTRAL KENTUCKY...

CITY           SKY/WX    TMP DP  RH WIND       PRES   REMARKS
MT STERLING*   CLOUDY    70  70 100 CALM      29.96R
FLEMING/MASON* MOCLDY    71  70  98 SW6       29.93S
DANVILLE*      CLOUDY    70  70 100 CALM      29.95S
LEXINGTON      CLOUDY    72  70  93 CALM      29.95R
FRANKFORT      CLOUDY    72  68  87 CALM      29.93R
LOUISVILLE     MOCLDY    74  71  91 SW5       29.91S
LEBANON*       CLOUDY    73  73 100 CALM      29.94S FOG
GLASGOW*       CLOUDY    71  71 100 S3        29.95S
BOWLING GREEN  CLOUDY    74  71  91 CALM      29.95R
$$

KYZ091>093-OHZ055-061-077-WVZ005-015-034-035-042-300900
...SOUTHERN OHIO/WEST VIRGINIA...

CITY           SKY/WX    TMP DP  RH WIND       PRES   REMARKS
COVINGTON      CLOUDY    70  70 100 S3        29.91S
COLUMBUS       CLOUDY    71  69  93 CALM      29.90F
DAYTON         MOCLDY    69  68  96 SE5       29.92S FOG
WILMINGTON     CLOUDY    67  67 100 CALM      29.91F FOG
HUNTINGTON     CLOUDY    71  69  93 S5        29.92F
CHARLESTON       N/A     71  68  90 CALM      29.95R
PINEVILLE*     CLOUDY    69  66  90 MISG      30.05S FOG
BECKLEY          N/A     64  63  96 CALM      30.03F FOG
BLUEFIELD        N/A     66  62  87 SW3       30.06F
LOGAN CO APT*    N/A     68  68 100 CALM      29.97S
$$

VAZ002-007-008-TNZ017-027-036-066-071-300900
...SOUTHWEST VIRGINIA/EAST TENNESSEE...

CITY           SKY/WX    TMP DP  RH WIND       PRES   REMARKS
WISE*            N/A     64  63  94 S3        30.06F
JONESVILLE*    CLOUDY    68  68 100 CALM      30.02S
ABINGDON*      CLOUDY    68  68 100 CALM      30.04F FOG
BRISTOL        CLOUDY    69  67  93 CALM      30.01F FOG
MORRISTOWN*    PTSUNNY   70  68  94 CALM      29.98F
SEVIERVILLE*   MOSUNNY   68  68 100 CALM      29.97S
KNOXVILLE      MOCLDY    72  70  93 NW6       29.97S
OAK RIDGE      CLOUDY    75  71  87 S3        29.98F
CROSSVILLE     CLOUDY    71  69  93 CALM      30.01F
NASHVILLE      PTCLDY    73  69  87 W3        29.97R
$$

...KEY TO REMARKS...
VSB - VISIBILITY IN MILES
WCI - WIND CHILL INDEX
HX  - HEAT INDEX

$$



USA.gov is the U.S. government's official web portal to all federal, state and local government web resources and services.